When you browse on this site, cookies collect data to enhance your experience and personalize the content and advertising you see.
Visit our Privacy Policy to learn more. By continuing to use the site, you agree to this use of cookies and data.
  • In Latvia
  • List of Countries
  • For 7 days
  • Water Temperature
  • Satellite Maps
  • Weather Map
  • Weather Widgets
  • user-avatar
    Login

    Hourly Weather Viedma

    Today, 17 July, Wednesday

    Time Temperature Precipitation Wind Pressure Humidity
    00:00 +9°C° 0 mm 6 mps 756 mmHg 61%
    01:00 +9°C° 0 mm 5 mps 756 mmHg 61%
    02:00 +8°C° 0 mm 5 mps 756 mmHg 61%
    03:00 +8°C° 0 mm 5 mps 756 mmHg 63%
    04:00 +8°C° 0 mm 4 mps 756 mmHg 65%
    05:00 +8°C° 0 mm 4 mps 756 mmHg 67%
    06:00 +8°C° 0 mm 4 mps 756 mmHg 69%
    07:00 +8°C° 0 mm 4 mps 756 mmHg 71%
    08:00 +9°C° 0 mm 5 mps 756 mmHg 74%
    09:00 +10°C° 0 mm 5 mps 755 mmHg 70%
    10:00 +11°C° 0 mm 6 mps 754 mmHg 67%
    11:00 +12°C° 0 mm 7 mps 754 mmHg 63%
    12:00 +13°C° 0 mm 8 mps 753 mmHg 60%
    13:00 +16°C° 0 mm 9 mps 753 mmHg 57%
    14:00 +17°C° 0 mm 10 mps 752 mmHg 53%
    15:00 +17°C° 0 mm 9 mps 752 mmHg 55%
    16:00 +16°C° 0 mm 8 mps 752 mmHg 57%
    17:00 +16°C° 0 mm 7 mps 752 mmHg 59%
    18:00 +15°C° 0 mm 7 mps 752 mmHg 56%
    19:00 +15°C° 0 mm 7 mps 753 mmHg 54%
    20:00 +15°C° 0 mm 7 mps 753 mmHg 51%
    21:00 +14°C° 0 mm 7 mps 754 mmHg 46%
    22:00 +12°C° 0 mm 7 mps 755 mmHg 41%
    23:00 +12°C° 0 mm 7 mps 756 mmHg 37%

    Tomorrow, 18 July, Thursday

    Time Temperature Precipitation Wind Pressure Humidity
    00:00 +11°C° 0 mm 6 mps 757 mmHg 39%
    01:00 +10°C° 0 mm 6 mps 757 mmHg 40%
    02:00 +9°C° 0 mm 6 mps 758 mmHg 42%
    03:00 +8°C° 0 mm 5 mps 759 mmHg 44%
    04:00 +7°C° 0 mm 5 mps 759 mmHg 46%
    05:00 +7°C° 0 mm 5 mps 760 mmHg 47%
    06:00 +6°C° 0 mm 5 mps 761 mmHg 49%
    07:00 +6°C° 0 mm 4 mps 761 mmHg 51%
    08:00 +6°C° 0 mm 4 mps 762 mmHg 53%
    09:00 +7°C° 0 mm 4 mps 762 mmHg 46%
    10:00 +10°C° 0 mm 4 mps 763 mmHg 39%
    11:00 +12°C° 0 mm 5 mps 763 mmHg 32%
    12:00 +13°C° 0 mm 5 mps 763 mmHg 30%
    13:00 +13°C° 0 mm 5 mps 763 mmHg 28%
    14:00 +14°C° 0 mm 5 mps 763 mmHg 25%
    15:00 +13°C° 0 mm 4 mps 762 mmHg 27%
    16:00 +12°C° 0 mm 4 mps 762 mmHg 29%
    17:00 +11°C° 0 mm 4 mps 762 mmHg 30%
    18:00 +10°C° 0 mm 4 mps 762 mmHg 32%
    19:00 +8°C° 0 mm 4 mps 762 mmHg 33%
    20:00 +7°C° 0 mm 4 mps 762 mmHg 34%
    21:00 +7°C° 0 mm 5 mps 761 mmHg 34%
    22:00 +6°C° 0 mm 5 mps 761 mmHg 35%
    23:00 +5°C° 0 mm 6 mps 761 mmHg 35%

    Day after tomorrow, 19 July, Friday

    Time Temperature Precipitation Wind Pressure Humidity
    00:00 +5°C° 0 mm 6 mps 760 mmHg 36%
    01:00 +5°C° 0 mm 6 mps 759 mmHg 37%
    02:00 +4°C° 0 mm 6 mps 758 mmHg 38%
    03:00 +5°C° 0 mm 7 mps 758 mmHg 38%
    04:00 +5°C° 0 mm 8 mps 757 mmHg 39%
    05:00 +6°C° 0 mm 8 mps 757 mmHg 40%
    06:00 +6°C° 0 mm 9 mps 756 mmHg 41%
    07:00 +6°C° 0 mm 9 mps 755 mmHg 41%
    08:00 +6°C° 0 mm 9 mps 754 mmHg 42%
    09:00 +7°C° 0 mm 9 mps 754 mmHg 42%
    10:00 +8°C° 0 mm 10 mps 754 mmHg 41%
    11:00 +9°C° 0 mm 10 mps 753 mmHg 41%
    12:00 +11°C° 0 mm 9 mps 752 mmHg 42%
    13:00 +12°C° 0 mm 9 mps 751 mmHg 43%
    14:00 +12°C° 0 mm 8 mps 751 mmHg 44%
    15:00 +12°C° 0 mm 7 mps 750 mmHg 44%
    16:00 +11°C° 0 mm 6 mps 750 mmHg 43%
    17:00 +12°C° 0 mm 5 mps 750 mmHg 42%
    18:00 +10°C° 0 mm 6 mps 750 mmHg 41%
    19:00 +10°C° 0 mm 6 mps 750 mmHg 39%
    20:00 +10°C° 0 mm 7 mps 750 mmHg 38%
    21:00 +9°C° 0 mm 7 mps 750 mmHg 40%
    22:00 +9°C° 0 mm 7 mps 751 mmHg 42%
    23:00 +8°C° 0 mm 6 mps 751 mmHg 45%

    20 July, Saturday

    Time Temperature Precipitation Wind Pressure Humidity
    00:00 +7°C° 0 mm 6 mps 752 mmHg 49%
    01:00 +7°C° 0 mm 5 mps 752 mmHg 53%
    02:00 +6°C° 0 mm 5 mps 753 mmHg 57%
    03:00 +6°C° 0 mm 4 mps 753 mmHg 59%
    04:00 +5°C° 0 mm 4 mps 753 mmHg 60%
    05:00 +5°C° 0 mm 3 mps 754 mmHg 61%
    06:00 +4°C° 0 mm 3 mps 754 mmHg 60%
    07:00 +4°C° 0 mm 3 mps 754 mmHg 58%
    08:00 +4°C° 0 mm 3 mps 754 mmHg 57%
    09:00 +5°C° 0 mm 4 mps 754 mmHg 52%
    10:00 +6°C° 0 mm 4 mps 754 mmHg 47%
    11:00 +8°C° 0 mm 5 mps 754 mmHg 41%
    12:00 +8°C° 0 mm 5 mps 754 mmHg 38%
    13:00 +9°C° 0 mm 5 mps 753 mmHg 35%
    14:00 +10°C° 0 mm 6 mps 752 mmHg 32%
    15:00 +9°C° 0 mm 5 mps 752 mmHg 34%
    16:00 +10°C° 0 mm 4 mps 752 mmHg 36%
    17:00 +9°C° 0 mm 3 mps 752 mmHg 38%
    18:00 +7°C° 0 mm 4 mps 752 mmHg 42%
    19:00 +6°C° 0 mm 4 mps 752 mmHg 46%
    20:00 +6°C° 0 mm 4 mps 752 mmHg 50%
    21:00 +5°C° 0 mm 4 mps 752 mmHg 56%
    22:00 +4°C° 0 mm 4 mps 752 mmHg 62%
    23:00 +4°C° 0 mm 4 mps 751 mmHg 68%

    21 July, Sunday

    Time Temperature Precipitation Wind Pressure Humidity
    00:00 +3°C° 0 mm 4 mps 751 mmHg 70%
    01:00 +3°C° 0 mm 4 mps 751 mmHg 72%
    02:00 +2°C° 0 mm 5 mps 751 mmHg 75%
    03:00 +2°C° 0 mm 6 mps 751 mmHg 75%
    04:00 +3°C° 0 mm 6 mps 751 mmHg 75%
    05:00 +3°C° 0 mm 7 mps 750 mmHg 75%
    06:00 +4°C° 0 mm 7 mps 750 mmHg 69%
    07:00 +4°C° 0 mm 8 mps 750 mmHg 62%
    08:00 +4°C° 0 mm 8 mps 750 mmHg 56%
    09:00 +5°C° 0 mm 9 mps 750 mmHg 51%
    10:00 +7°C° 0 mm 9 mps 750 mmHg 45%
    11:00 +8°C° 0 mm 10 mps 751 mmHg 40%
    12:00 +9°C° 0 mm 10 mps 750 mmHg 37%
    13:00 +10°C° 0 mm 9 mps 750 mmHg 35%
    14:00 +11°C° 0 mm 8 mps 750 mmHg 32%
    15:00 +10°C° 0 mm 8 mps 751 mmHg 38%
    16:00 +9°C° 0 mm 7 mps 751 mmHg 44%
    17:00 +8°C° 0 mm 7 mps 752 mmHg 50%
    18:00 +7°C° 0 mm 6 mps 753 mmHg 52%
    19:00 +6°C° 0 mm 5 mps 754 mmHg 55%
    20:00 +5°C° 0 mm 3 mps 754 mmHg 57%
    21:00 +5°C° 0 mm 4 mps 755 mmHg 53%
    22:00 +5°C° 0 mm 4 mps 755 mmHg 49%
    23:00 +5°C° 0 mm 5 mps 756 mmHg 45%

    22 July, Monday

    Time Temperature Precipitation Wind Pressure Humidity
    00:00 +3°C° 0 mm 5 mps 756 mmHg 47%
    01:00 +4°C° 0 mm 4 mps 757 mmHg 49%
    02:00 +3°C° 0 mm 4 mps 757 mmHg 51%
    03:00 +2°C° 0 mm 5 mps 757 mmHg 51%
    04:00 +2°C° 0 mm 5 mps 757 mmHg 50%
    05:00 +1°C° 0 mm 5 mps 757 mmHg 50%
    06:00 +1°C° 0 mm 5 mps 757 mmHg 51%
    07:00 +1°C° 0 mm 5 mps 757 mmHg 52%
    08:00 0°C° 0 mm 5 mps 758 mmHg 54%
    09:00 +3°C° 0 mm 5 mps 758 mmHg 47%
    10:00 +5°C° 0 mm 6 mps 758 mmHg 40%
    11:00 +8°C° 0 mm 7 mps 758 mmHg 33%
    12:00 +9°C° 0 mm 7 mps 758 mmHg 33%
    13:00 +10°C° 0 mm 7 mps 758 mmHg 33%
    14:00 +10°C° 0 mm 7 mps 758 mmHg 33%
    15:00 +9°C° 0 mm 6 mps 758 mmHg 35%
    16:00 +9°C° 0 mm 6 mps 758 mmHg 37%
    17:00 +8°C° 0 mm 5 mps 758 mmHg 40%
    18:00 +7°C° 0 mm 5 mps 759 mmHg 43%
    19:00 +6°C° 0 mm 5 mps 759 mmHg 47%
    20:00 +6°C° 0 mm 5 mps 760 mmHg 51%
    21:00 +5°C° 0 mm 4 mps 760 mmHg 52%
    22:00 +5°C° 0 mm 4 mps 761 mmHg 53%
    23:00 +4°C° 0 mm 4 mps 761 mmHg 54%
    Show more